Lid_Strength_Index
0 1 1 0 1 1 1 1 -0 0 0 0 0 0 0 0 1 0 1 1 1 1
0 0 0 0 0 0 0 0 -0 0 0 0 0 0 0 1 1 1 1 1 1 1
0 0 0 0 1 0 0 0 0 0 0 1 0 0 0 1 0 1 1 1 1 1
0 -0 0 0 0 0 0 0 1 1 1 1 1 1 1 1 1 1 1 1 1 1
0 0 0 0 0 0 1 0 1 1 1 1 1 1 1 1 1 1 1 1 1 1
1 0 1 1 0 0 0 1 0 1 1 1 1 1 1 1 1 1 1 1 1 1
1 1 0 0 0 1 0 1 1 1 0 1 1 1 1 1 1 1 1 1 1 1
1 0 0 0 0 0 0 0 0 1 1 1 1 1 1 1 1 1 1 0 0 0
1 1 1 1 1 1 1 1 1 1 1 1 1 7 7 2 1 1 1 1 1 0
1 1 1 1 1 1 1 1 1 1 1 1 1 10 9 7 1 1 1 1 1 1
1 1 1 1 1 1 1 1 1 1 1 1 1 11 11 7 0 1 1 1 0 1
1 1 1 2 1 1 1 2 1 1 1 1 2 12 10 5 1 1 1 0 0 0
1 1 2 1 2 1 1 1 1 1 1 4 1 12 10 5 1 1 1 0 1 7
1 1 1 2 1 1 2 2 2 2 2 1 1 4 12 10 1 1 1 2 1 1